Flag for Germany Weather past 2 weeks in Wermelskirchen, North Rhine-Westphalia, Germany

Now
52 °F

Clear.


Feels Like: 51 °F
Forecast: 47 / 64 °F
Wind: 5 mph from Southeast

Location: Koeln / Bonn

Current Time: Jul 30, 2015 at 2:33:51 AM

Latest Report: Jul 30, 2015 at 1:50 AM


Visibility: 10 mi

Pressure: 29.95 "Hg

Humidity: 82%

Dew point: 46 °F

Location of WermelskirchenLocation

Historic Weather in Wermelskirchen — Graph

°F

Wermelskirchen temperature yesterday

Maximum temperature yesterday: 66 °F (at 12:20 PM)
Minimum temperature yesterday: 50 °F (at 5:50 AM)
Average temperature yesterday: 58 °F

Past Weeks' High & Low Weather Summary

 TemperatureHumidityPressure
High95 °F (Jul 17, 3:20 PM)94% (Jul 15, 1:20 AM)30.12 "Hg (Jul 15, 1:20 AM)
Low48 °F (Jul 26, 3:50 AM)15% (Jul 17, 4:20 PM)29.56 "Hg (Jul 25, 6:50 AM)
Average67 °F68%29.90 "Hg
* Reported Jul 15 1:20 AM — Jul 30 1:20 AM, Wermelskirchen, Weather by CustomWeather, © 2015

Note: Actual official high and low records may vary slightly from our data, if they occured in-between our weather recording intervals... More about our weather records

Advertising

Wermelskirchen weather history for previous 24 hours

 ConditionsComfort  
Time TempWeatherWind HumidityBarometerVisibility
1:20 AM
Thu, Jul 30
52 °FClear.3 mph82%29.95 "Hg10 mi
12:50 AM52 °FPartly cloudy.5 mph82%29.95 "HgN/A
12:20 AM52 °FClear.6 mph77%29.92 "Hg10 mi
11:50 PM
Wed, Jul 29
55 °FClear.5 mph72%29.92 "Hg10 mi
11:20 PM55 °FClear.3 mph67%29.92 "Hg10 mi
10:50 PM57 °FClear.7 mph63%29.92 "Hg10 mi
10:20 PM59 °FSunny.7 mph63%29.92 "Hg10 mi
9:50 PM59 °FSunny.12 mph59%29.92 "Hg10 mi
9:20 PM61 °FSunny.14 mph55%29.89 "Hg10 mi
8:50 PM63 °FSunny.15 mph45%29.89 "Hg10 mi
8:20 PM64 °FSunny.17 mph40%29.86 "Hg10 mi
7:50 PM64 °FSunny.17 mph43%29.86 "Hg10 mi
7:20 PM66 °FSunny.18 mph43%29.86 "Hg10 mi
6:50 PM66 °FPassing clouds.17 mph43%29.83 "HgN/A
6:20 PM64 °FScattered clouds.13 mph56%29.83 "HgN/A
5:50 PM63 °FScattered clouds.13 mph56%29.83 "HgN/A
5:20 PM61 °FSprinkles. Broken clouds.8 mph68%29.83 "HgN/A
4:50 PM63 °FScattered showers. Scattered clouds.6 mph59%29.83 "HgN/A
4:20 PM57 °FScattered showers. Broken clouds.7 mph82%29.83 "HgN/A
3:50 PM59 °FSprinkles. Broken clouds.10 mph77%29.83 "HgN/A
3:20 PM57 °FSprinkles. Broken clouds.12 mph77%29.80 "HgN/A
2:50 PM61 °FSprinkles. Broken clouds.10 mph55%29.80 "HgN/A
2:20 PM63 °FSprinkles. Broken clouds.12 mph49%29.80 "HgN/A
1:50 PM64 °FSprinkles. Sunny.20 mph40%29.80 "HgN/A
1:20 PM66 °FScattered clouds.9 mph40%29.77 "HgN/A
12:50 PM66 °FScattered clouds.14 mph40%29.77 "HgN/A
12:20 PM66 °FScattered clouds.16 mph46%29.77 "HgN/A
11:50 AM64 °FScattered clouds.15 mph56%29.77 "HgN/A
11:20 AM64 °FScattered clouds.13 mph56%29.77 "HgN/A
10:50 AM61 °FScattered clouds.9 mph68%29.80 "HgN/A
10:20 AM59 °FSprinkles. Partly sunny.14 mph68%29.80 "HgN/A
9:50 AM59 °FScattered showers. Partly sunny.16 mph68%29.80 "HgN/A
9:20 AM57 °FScattered showers. Broken clouds.8 mph72%29.80 "HgN/A
8:50 AM57 °FScattered clouds.8 mph72%29.80 "HgN/A
8:20 AM55 °FScattered showers. Scattered clouds.12 mph77%29.77 "HgN/A
7:50 AM54 °FScattered showers. Scattered clouds.8 mph82%29.80 "HgN/A
7:20 AM54 °FSprinkles. Scattered clouds.8 mph77%29.80 "HgN/A
6:50 AM52 °FSprinkles. Passing clouds.7 mph82%29.80 "HgN/A
6:20 AM52 °FSprinkles. Partly cloudy.6 mph82%29.80 "HgN/A
5:50 AM50 °FPassing clouds.6 mph82%29.80 "HgN/A
5:20 AM52 °FClear.6 mph77%29.80 "Hg10 mi
4:50 AM52 °FClear.7 mph82%29.80 "Hg10 mi
4:20 AM52 °FClear.7 mph82%29.80 "Hg10 mi
3:50 AM52 °FPassing clouds.6 mph82%29.80 "HgN/A
3:20 AM52 °FClear.7 mph82%29.80 "Hg10 mi
2:50 AM54 °FClear.7 mph77%29.80 "Hg10 mi
2:20 AM54 °FPassing clouds.6 mph77%29.80 "HgN/A
Weather by CustomWeather, © 2015

See weather overviewHow to use our weather pages